Weather Roundup
Issued by NWS Corpus Christi, TX

Home | Current Version | Previous Version | Text Only | Print | Product List | Glossary On
Versions: 1 2 3 4 5 6 7 8 9 10 11 12 13 14 15 16 17 18 19 20 21 22 23 24 25 26 27 28 29 30 31 32 33 34 35 36 37 38 39 40 41 42 43 44 45 46 47 48 49 50
000
ASUS44 KCRP 312110
HRRCRP

SOUTH TEXAS REGIONAL WEATHER ROUNDUP
NATIONAL WEATHER SERVICE CORPUS CHRISTI TX
400 PM CDT MON AUG 31 2015


TXZ229>244-312200-
...CORPUS CHRISTI AREA OBSERVATIONS...

CITY           SKY/WX    TMP DP  RH WIND       PRES   REMARKS
CORPUS CHRISTI TSTM      81  73  78 S6        29.96F
NAS CORPUS CHR CLOUDY    84  73  69 SE16      29.97F THUNDER HX  90
ROCKPORT       FAIR      85  71  63 SE8       29.94F HX  90
KINGSVILLE NAS PTSUNNY   87  76  69 SE15      29.97R HX  97
ALICE          FAIR      82  74  76 E16       29.94F
FALFURRIAS     CLOUDY    75  70  84 E22G33    30.00R
$$

...VICTORIA AREA OBSERVATIONS...

CITY           SKY/WX    TMP DP  RH WIND       PRES   REMARKS
VICTORIA       FAIR      82  75  79 SE12      29.99F
BEEVILLE       FAIR      89  71  56 E17G23    29.97S HX  95
PLEASANTON     PTSUNNY  100  58  24 E9        29.93F HX  99
SAN ANTONIO    FAIR      94  60  32 SE9       29.96F HX  94
$$

...LAREDO AREA OBSERVATIONS...

CITY           SKY/WX    TMP DP  RH WIND       PRES   REMARKS
LAREDO         FAIR     100  63  29 VRB6      29.90F HX 102
COTULLA        PTSUNNY   99  61  28 SE10      29.91F HX  99
DEL RIO        FAIR      96  58  27 E7G20     29.91F HX  95
MCALLEN        FAIR      85  71  63 E26G35    29.92F HX  90
HEBBRONVILLE   NOT AVBL
$$

...OTHER TEXAS OBSERVATIONS...

CITY           SKY/WX    TMP DP  RH WIND       PRES   REMARKS
BROWNSVILLE    TSTM      79  77  94 E14       29.94F
HOUSTON        CLOUDY    87  72  60 E10       30.00F HX  93
COL. STATION   FAIR      89  69  51 S13       29.97F HX  93
AUSTIN         PTSUNNY   94  60  32 VRB5      29.94F HX  94
WACO           FAIR      93  63  36 SW7       29.96F HX  94
FORT WORTH     FAIR      94  60  32 S6        29.95F HX  94
WICHITA FALLS  FAIR      96  60  30 SE17      29.94F HX  96
LUBBOCK        FAIR      91  49  23 S15G22    30.03F
EL PASO        FAIR      95  41  15 S8        30.02F HX  91
$$

...MARINE OBSERVATIONS...

STATION/POSITION TIME  SKY/WX   TEMP    WIND        PRES    VSBY  WAVE   SWELL
                                AIR SEA DIR/SP/G                  HT/PER HT/PER
                 (UTC)          (F)     (DEG/KT/KT) (MB)    (MI)  (FT/S) (FT/S)
PORT ARANSAS     2100            83 87  110/ 14/ 16 1015.9F
BUOY 90 E PORT A 2050            78 85   70/  4/  6 1016.2F         1/ 4   2/ 4
BUOY 45 SE BAFFI 2050            83 85  150/ 12/ 14 1015.0R         2/ 5
BUOY 200 E PT IS 2050            86 85  120/ 12/ 14 1014.9F         2/ 6   2/ 6
BUOY 15 E GALVES 2050            79 85  140/ 19/ 21 1016.4S         2/ 3
$$


USA.gov is the U.S. government's official web portal to all federal, state and local government web resources and services.